Wind_Speed
38 32 31 30 24 20 22 25 23 22 23 22 20 21 22 21 19 19 18 17 17 18 20 24 25 27 31 36 40 43 45 44 43 40 37 36 37 38 37 36 34 31 26 21 19 23 31 34 31 28 26 23 22 20 19 18 17 16 15 14 12 11 11 12 13 14 14 13 13 13 14 15 15 16 17 17 18 20 21 23 25 27 29 30 32
37 32 32 28 23 21 23 26 26 24 24 22 21 21 21 21 20 20 20 19 19 19 20 23 26 27 30 35 39 43 44 45 45 43 40 38 38 39 38 37 37 35 30 24 20 20 25 31 32 31 27 24 24 22 20 18 17 17 16 14 12 10 11 11 12 12 12 13 13 14 15 15 16 16 17 18 19 20 22 24 26 28 29 30 32
36 34 33 28 25 25 24 24 26 26 25 23 20 20 20 20 20 20 20 20 20 20 20 22 26 28 30 34 39 42 44 45 46 46 44 40 39 39 39 39 39 38 34 28 23 21 22 27 31 32 31 28 27 25 22 19 18 18 16 15 12 10 11 11 11 11 11 12 13 14 15 16 16 17 18 19 20 21 23 25 26 27 28 29 30
36 35 33 29 28 30 29 27 27 25 23 22 21 20 20 20 20 21 20 19 19 20 20 22 25 28 29 33 38 41 43 44 45 47 46 44 41 40 39 40 41 40 37 32 27 24 24 26 29 30 32 32 29 26 22 19 19 19 17 15 12 11 12 13 12 12 13 13 14 15 16 17 17 18 19 20 21 23 24 24 25 26 27 28 30
35 35 34 31 30 30 31 31 29 24 21 22 24 24 23 23 23 21 19 19 19 19 20 22 24 27 29 31 35 40 42 42 42 45 46 45 43 42 40 40 42 41 39 36 32 28 25 26 28 27 27 29 28 27 25 23 22 21 20 17 15 14 14 14 14 14 15 15 16 17 18 18 19 19 20 21 22 23 24 24 25 26 27 28 30
34 36 36 33 31 29 30 30 29 27 25 24 25 26 25 26 26 22 20 19 18 19 19 21 23 26 28 30 33 38 42 42 40 41 43 43 43 42 42 41 42 42 41 39 36 32 26 23 26 25 24 25 25 25 26 26 26 25 23 22 20 18 16 16 16 16 17 17 18 19 19 20 20 20 21 22 22 23 24 25 26 28 28 29 31
36 37 37 34 31 28 27 28 29 30 28 26 26 27 27 29 28 24 22 19 18 18 18 20 22 25 28 30 32 36 42 44 42 40 40 41 41 40 42 42 42 43 43 41 38 35 29 23 22 22 21 21 21 21 21 22 23 23 23 22 22 20 18 18 18 18 18 19 20 21 21 21 21 21 21 22 22 24 26 27 29 30 30 30 31
39 37 36 35 31 28 28 28 30 30 28 28 30 31 31 31 29 25 23 21 19 17 17 19 22 25 28 31 33 35 40 45 45 43 39 38 39 39 40 41 42 43 42 40 38 37 33 27 24 22 21 20 20 19 18 19 20 21 21 21 22 21 20 19 19 19 20 21 22 23 23 21 20 21 22 23 24 26 28 29 30 31 31 31 31
44 38 36 37 32 30 30 29 30 30 28 30 34 35 34 33 32 29 28 25 21 18 17 19 22 25 28 30 33 35 37 42 46 48 45 40 38 38 39 39 41 42 42 39 38 38 36 32 29 27 25 24 23 22 22 22 21 21 20 20 20 21 20 20 20 21 23 23 24 24 23 21 21 22 24 25 27 29 30 31 31 31 31 30 30
49 43 39 40 36 32 31 30 32 32 30 32 36 37 36 34 33 33 33 29 23 19 18 19 21 24 28 30 33 35 37 39 43 48 50 46 41 38 37 38 39 41 42 40 38 38 38 37 34 32 30 29 28 27 27 27 25 24 23 22 21 21 21 20 21 23 24 25 25 24 21 21 24 25 26 27 28 29 30 31 31 31 30 30 30
52 50 45 43 40 37 35 32 34 36 33 33 33 34 36 37 34 33 34 31 25 21 20 21 21 23 27 30 33 36 38 40 41 44 48 51 47 41 38 37 39 40 41 40 39 38 38 38 37 36 35 33 32 30 29 28 26 25 25 24 24 23 22 20 20 22 24 25 25 22 21 24 27 27 27 27 28 29 30 30 30 30 30 30 31
52 55 53 49 45 43 42 38 36 38 38 36 33 33 36 38 36 34 35 33 27 24 24 23 24 24 26 29 32 35 39 40 41 42 45 50 52 48 42 38 38 39 40 40 40 39 39 38 38 37 37 36 34 32 31 30 28 27 25 25 25 24 24 23 22 22 22 22 21 21 24 27 27 27 27 27 28 29 29 30 31 31 32 32 32
51 54 55 55 52 50 49 46 43 41 42 42 40 39 39 40 40 39 39 38 32 28 28 27 27 27 26 28 31 33 38 40 41 42 44 48 52 52 48 43 39 38 38 38 39 39 38 37 38 37 37 36 36 34 33 31 30 29 28 26 26 26 27 27 26 26 26 24 24 26 29 28 27 28 28 28 29 29 30 31 32 34 34 34 33
49 52 54 55 55 54 54 53 51 48 45 46 48 48 46 45 44 44 43 44 40 33 30 30 29 29 28 28 31 33 36 39 41 42 43 45 49 52 52 48 43 39 38 38 37 38 37 35 35 36 36 35 35 34 34 33 33 32 31 31 30 30 30 30 30 30 29 29 29 31 31 29 30 30 31 31 31 31 32 33 35 36 36 36 35
46 50 53 55 56 56 57 56 55 53 49 46 49 50 49 48 49 48 46 46 45 39 34 34 32 31 30 30 31 32 35 38 40 41 41 42 45 49 52 52 49 45 42 41 39 38 38 37 35 34 34 34 34 34 34 35 35 35 34 35 35 35 34 33 33 32 32 31 31 31 31 31 32 32 33 33 33 33 34 35 36 37 37 37 35
44 47 51 55 57 58 58 59 58 57 54 49 49 50 49 50 50 50 49 48 47 43 39 39 36 33 32 33 31 31 35 37 37 38 39 39 41 44 48 51 51 49 46 45 44 42 41 40 39 37 36 36 37 36 37 38 38 38 38 38 38 37 36 35 35 35 34 34 34 33 32 32 33 34 35 35 35 36 37 38 37 37 36 36 35
44 45 48 51 55 58 60 61 61 60 59 55 52 51 50 50 50 50 50 50 47 44 43 42 41 37 34 34 33 31 33 34 35 37 37 37 38 40 44 47 49 50 49 47 46 45 44 43 42 41 40 41 41 41 41 42 42 42 41 40 39 38 38 37 36 37 36 36 37 37 35 35 36 37 37 37 37 38 40 40 37 36 36 36 35
44 45 47 49 52 55 57 60 62 62 62 59 56 53 51 51 52 52 52 51 48 46 46 45 43 40 37 36 35 33 32 30 32 35 35 36 37 38 40 43 46 49 50 49 47 46 45 43 43 43 43 43 43 44 44 44 45 44 43 42 40 40 39 39 38 39 38 37 38 38 37 38 39 39 39 39 39 41 42 40 37 35 36 36 35
45 46 47 49 50 52 54 56 59 62 63 62 60 57 54 51 52 54 55 53 51 48 48 47 44 44 42 39 38 36 34 31 31 33 33 34 35 37 38 39 42 45 48 49 49 47 45 43 43 43 43 42 43 44 45 45 44 44 43 42 42 41 40 40 40 40 39 37 37 38 39 39 40 40 40 40 41 42 42 40 36 34 35 35 35
46 47 48 49 50 51 53 55 56 59 62 64 63 61 58 54 52 54 57 57 54 52 50 48 46 47 46 43 41 40 38 37 36 34 33 32 33 36 37 36 37 40 44 46 47 47 46 44 43 42 40 38 39 41 42 42 40 39 39 41 41 40 39 40 40 40 39 36 36 38 39 40 40 40 40 40 41 41 41 38 35 33 32 33 34
47 48 48 49 50 51 53 54 56 57 59 62 63 63 62 59 54 54 58 59 57 55 54 51 49 49 49 46 45 44 43 42 41 39 37 35 34 35 35 35 36 37 39 41 42 43 44 43 43 42 39 37 38 39 40 39 37 37 38 40 41 40 39 40 41 41 39 36 36 39 40 40 39 39 39 39 39 39 38 35 31 30 30 30 31
49 50 50 50 51 52 53 54 56 57 59 60 62 62 62 63 60 56 56 59 59 58 57 55 52 52 51 49 48 48 47 45 44 44 41 39 36 34 35 36 37 38 37 37 37 38 39 40 41 40 39 38 39 40 41 40 39 39 40 41 42 41 40 41 43 42 39 34 34 38 39 39 38 37 38 38 37 36 33 30 27 27 27 28 28
51 52 52 52 52 53 54 55 56 57 59 60 62 62 61 63 63 60 58 59 59 59 59 58 57 55 54 52 50 51 51 48 48 47 44 42 39 37 37 37 38 39 39 37 35 35 36 36 37 37 36 36 38 39 40 40 39 40 41 41 42 42 40 40 41 40 36 32 33 36 37 37 36 35 35 34 33 31 28 25 24 24 25 25 25
53 53 53 54 55 55 55 56 57 57 59 60 62 62 62 62 63 63 61 60 60 59 60 60 60 59 57 55 53 53 53 52 51 50 48 46 44 42 41 39 39 40 41 39 37 35 35 36 37 37 35 34 35 36 36 37 38 39 41 41 41 39 36 34 35 34 30 29 31 33 34 34 34 32 31 30 29 27 24 22 21 21 22 22 22
55 55 55 56 56 57 57 57 58 59 59 60 61 62 62 62 63 64 63 62 62 61 61 61 61 61 60 59 56 55 55 55 54 52 51 50 47 45 44 41 39 39 40 40 39 38 37 37 38 37 35 34 34 33 32 33 35 35 37 39 38 36 32 29 29 28 25 24 26 28 30 31 31 29 29 28 26 23 20 19 18 18 18 19 21
56 57 58 58 58 58 59 59 59 60 60 61 62 62 63 63 63 64 64 64 63 64 63 63 63 63 63 61 59 58 57 57 57 55 54 52 50 48 47 43 40 40 40 40 41 40 39 39 39 38 36 35 34 33 31 31 32 31 32 35 35 34 32 30 28 26 24 23 24 26 27 29 28 27 27 26 23 19 17 16 16 16 17 19 20
58 59 60 60 60 60 61 61 61 61 62 62 63 63 64 64 64 64 65 65 64 65 65 65 65 65 65 64 63 61 61 61 59 58 57 56 54 52 50 47 44 43 43 42 41 40 41 41 40 39 38 36 34 34 33 34 35 34 34 34 34 33 31 28 26 25 24 24 25 25 26 26 25 25 24 22 20 17 16 16 17 17 18 20 22
60 60 61 62 62 63 63 63 63 63 64 64 65 65 65 66 66 66 66 67 66 66 66 67 68 67 67 66 65 65 65 65 64 62 61 60 58 57 55 52 50 48 47 45 43 43 43 43 42 41 39 38 36 35 36 38 39 38 36 35 35 34 33 30 27 26 26 26 26 26 24 24 24 24 22 21 19 17 17 18 19 20 21 23 24
60 61 62 63 63 64 64 64 65 65 66 66 66 66 67 68 68 68 68 68 68 68 68 68 69 69 69 69 68 68 68 69 69 67 66 64 63 61 60 58 55 53 52 50 49 48 48 47 46 45 43 40 38 38 39 41 42 40 38 37 38 38 37 35 31 29 28 27 27 26 24 24 25 24 23 22 21 20 20 22 23 23 24 26 27
61 62 63 63 64 65 65 66 66 67 67 67 68 68 68 69 70 71 71 70 70 71 71 70 70 70 71 71 71 71 71 71 71 71 70 68 67 66 64 63 60 57 56 56 54 53 53 51 50 50 47 43 41 41 43 44 44 43 41 40 40 40 40 39 35 31 30 29 29 27 25 25 26 27 26 25 25 24 24 26 27 27 28 29 30
63 64 64 64 65 65 66 66 67 67 68 68 69 69 70 71 72 72 73 73 72 72 73 73 72 71 71 72 73 73 73 73 73 74 74 73 72 70 69 67 65 62 60 60 58 57 57 56 54 53 50 46 45 45 46 48 47 46 45 44 43 42 42 42 40 37 35 33 32 30 28 28 29 30 30 29 29 29 29 30 31 31 32 33 34
66 66 66 66 66 66 67 67 67 68 68 69 70 70 71 72 73 74 74 75 75 75 75 75 75 74 73 73 73 74 75 75 74 75 75 76 76 75 73 71 69 66 64 63 61 61 62 59 57 56 54 50 49 49 50 51 51 49 48 47 46 45 44 44 43 42 40 38 35 33 32 32 33 33 33 33 33 34 34 34 35 36 36 36 37
68 68 68 68 68 68 68 68 68 68 69 70 70 71 72 73 74 75 75 76 77 77 77 77 77 76 75 75 75 75 76 76 76 76 76 77 78 78 77 75 73 71 69 67 64 64 66 64 60 59 58 55 53 53 53 54 55 54 52 50 48 47 47 47 46 45 44 41 39 37 36 36 36 37 37 38 38 39 39 39 39 40 39 39 40
71 71 71 70 70 70 70 70 70 70 70 71 71 72 73 74 75 76 76 77 77 78 79 79 79 79 78 77 77 77 77 76 77 78 78 78 79 79 79 78 77 75 74 72 70 68 69 69 65 63 62 59 58 57 55 56 57 57 55 52 50 50 50 50 50 48 46 45 44 42 41 40 40 40 41 42 42 43 42 42 43 43 42 43 43
73 73 73 72 72 72 72 72 72 72 72 72 73 73 74 75 76 77 77 78 78 79 80 81 81 81 80 80 79 79 79 78 78 78 79 79 80 80 81 81 80 79 78 77 75 73 73 74 71 67 65 64 62 61 59 58 59 60 59 56 53 53 54 53 53 52 51 50 49 47 46 44 44 44 44 45 45 45 45 45 45 45 45 45 46
75 75 74 74 75 75 75 75 75 74 74 74 74 75 75 76 77 78 78 78 78 79 80 81 82 82 82 82 82 82 81 80 80 80 80 81 81 81 81 82 82 82 81 80 79 77 76 77 75 71 69 67 66 64 63 61 61 62 63 62 58 55 55 55 55 56 55 53 52 51 49 48 47 47 47 47 47 47 47 48 49 48 48 48 48
77 76 76 76 76 77 77 78 78 77 77 76 76 77 77 78 78 78 79 79 79 79 80 81 82 82 83 83 84 84 83 82 82 82 82 82 82 82 82 83 83 83 83 83 82 81 80 80 79 75 72 71 69 67 66 66 66 65 64 66 64 59 56 57 57 57 58 56 54 54 53 52 51 51 51 51 51 51 52 53 52 51 51 51 51
77 77 77 77 78 78 79 79 79 79 79 79 79 79 80 80 80 80 80 80 79 79 80 81 82 83 83 84 85 86 86 85 84 84 85 85 84 83 83 84 84 84 84 84 83 83 83 82 82 79 76 74 73 71 70 70 70 68 66 67 67 63 59 59 60 59 59 59 57 57 56 55 54 54 55 55 55 56 57 57 55 54 53 54 53
76 77 77 78 79 80 80 80 80 80 80 81 82 82 82 82 81 81 81 81 81 80 80 81 82 83 83 84 85 86 87 87 86 86 86 86 86 85 85 85 86 85 85 85 84 83 83 83 83 83 80 78 76 74 73 73 72 70 68 68 69 68 64 63 64 62 60 60 60 60 60 59 58 57 57 58 59 60 60 60 58 56 55 55 55
76 76 77 78 79 80 81 81 81 81 81 82 82 83 83 83 83 82 82 82 82 82 82 82 82 82 83 84 85 86 87 87 87 87 87 87 87 87 87 87 87 87 87 87 86 85 84 83 83 83 83 82 78 76 76 76 75 75 75 74 73 72 69 68 67 64 61 62 63 63 63 62 61 60 60 61 61 62 63 62 60 59 57 56 56
78 78 78 79 80 80 81 81 81 82 82 82 83 84 84 84 84 83 82 82 82 83 83 84 83 83 83 84 85 86 87 87 88 88 88 88 88 87 88 89 89 89 88 88 88 87 86 85 84 84 84 83 81 78 77 77 79 80 80 78 76 75 73 71 68 65 64 65 65 64 65 65 63 62 62 63 63 63 63 63 62 61 60 59 58
81 81 81 81 81 81 81 81 81 81 82 82 83 84 84 84 84 83 83 83 83 83 83 84 85 85 85 84 85 86 87 87 88 88 89 89 88 88 89 90 90 90 89 89 88 88 87 87 87 86 85 84 83 82 79 78 80 82 81 79 77 75 74 71 69 67 66 67 67 67 67 67 65 64 64 64 65 64 64 63 63 63 62 61 61
85 84 84 84 84 83 83 82 82 82 82 83 83 83 84 84 84 84 84 84 83 83 83 84 85 86 86 86 86 86 86 87 88 88 89 89 89 89 89 89 90 90 90 89 88 88 88 88 88 89 87 86 85 85 82 79 79 81 82 81 78 76 74 72 70 68 67 68 68 68 69 69 67 65 65 65 65 65 64 64 64 64 64 64 64
89 88 88 88 87 86 85 85 84 84 84 84 84 84 84 84 83 83 83 84 84 83 84 84 84 86 87 87 87 87 87 87 88 88 88 89 89 89 89 89 89 90 90 89 89 89 88 87 88 88 87 87 87 87 84 82 81 81 83 83 81 79 77 75 72 70 69 69 69 69 71 72 70 68 66 65 64 64 64 65 66 66 66 66 66
92 91 91 90 89 89 88 87 87 87 87 87 87 86 86 85 84 83 83 83 83 83 84 84 85 85 86 87 88 88 89 89 88 88 88 89 89 88 88 88 89 89 89 89 89 89 89 87 86 86 87 87 88 88 87 85 85 83 82 83 84 83 80 78 76 74 71 70 71 72 72 72 71 70 69 68 66 66 68 69 68 68 68 68 68
94 94 93 92 91 90 89 89 89 89 90 90 90 89 88 87 86 85 84 83 84 84 85 85 85 85 86 86 87 88 90 90 90 90 89 90 90 89 88 87 87 88 88 88 88 88 89 88 86 86 87 87 87 88 88 87 87 86 84 84 85 85 84 82 80 77 75 75 76 75 72 71 72 72 72 73 73 73 73 72 71 71 71 71 71
94 95 95 94 92 91 91 91 90 90 91 91 91 91 90 89 88 87 86 86 86 86 86 86 86 85 86 86 86 87 89 90 91 92 91 91 91 90 89 87 87 87 87 86 87 87 88 88 87 87 88 88 86 86 87 86 86 87 86 85 85 85 85 84 81 79 78 79 80 78 75 74 74 74 75 78 79 78 77 75 73 73 74 73 73
90 91 92 92 92 92 92 92 92 92 92 92 92 91 90 90 89 89 88 88 88 88 88 88 88 87 87 86 86 87 88 89 91 93 93 93 92 92 91 89 88 87 85 85 85 86 87 87 87 87 88 88 86 85 86 86 85 85 86 86 85 85 85 85 82 81 81 81 80 80 78 77 77 77 78 79 80 79 78 76 75 75 75 75 75
83 85 86 87 88 89 90 92 92 92 93 93 92 91 90 90 89 88 88 88 88 89 89 90 90 89 89 88 88 87 88 89 91 93 94 94 93 93 93 92 90 88 86 85 85 85 85 86 86 87 87 88 87 85 86 86 86 85 84 84 84 85 85 84 83 82 83 82 82 82 81 80 79 79 79 79 80 79 78 77 76 76 76 76 76
76 77 79 80 82 84 85 87 88 89 89 90 91 90 90 90 89 88 88 88 88 89 89 90 91 91 91 91 90 89 89 91 92 93 94 95 94 94 94 93 92 89 87 88 87 86 85 86 86 86 86 86 86 86 86 87 87 85 83 83 84 84 84 84 85 85 85 84 84 84 83 82 81 80 79 78 79 78 78 77 77 76 76 76 76
68 70 72 74 76 79 81 82 82 82 82 83 84 84 84 85 86 86 86 86 87 88 89 90 91 91 91 92 92 92 92 92 94 95 95 95 94 94 94 93 92 90 91 91 90 87 86 85 85 85 85 86 86 86 86 87 87 86 85 85 84 83 84 85 86 86 86 85 85 86 85 84 83 82 78 76 77 78 77 77 76 76 76 76 76
Wind_Direction
242 239 237 237 237 237 239 239 239 241 241 245 252 247 245 248 252 260 260 259 257 251 244 239 235 227 223 220 216 215 218 222 226 228 228 230 232 230 231 232 232 235 239 242 245 251 249 240 237 240 241 239 236 233 233 234 234 235 237 240 244 250 258 266 274 281 286 291 296 300 303 306 308 312 315 320 325 330 334 336 338 338 337 336 337
240 232 230 232 227 225 233 236 235 235 238 247 253 250 250 252 256 260 259 260 259 254 246 239 238 232 225 222 218 216 218 222 225 228 230 232 233 231 233 236 237 236 240 245 243 247 252 247 242 241 239 239 239 234 233 233 231 233 235 236 241 249 258 268 277 286 291 296 299 302 305 307 310 312 316 320 327 331 333 334 335 335 334 333 335
236 226 224 224 222 224 226 232 234 230 236 246 248 250 254 254 255 257 256 258 257 254 247 238 237 235 229 224 220 218 219 223 225 228 230 233 234 233 234 237 239 238 239 244 243 239 244 250 250 247 242 239 239 237 233 229 229 232 236 238 243 253 262 269 278 288 297 301 303 305 307 309 311 314 318 322 326 328 329 330 332 332 331 331 333
229 222 220 216 218 224 222 225 232 231 237 245 242 244 249 247 247 251 253 255 254 252 246 237 234 235 234 228 222 219 220 223 226 228 231 234 236 236 236 237 239 240 239 242 243 241 240 244 247 248 247 245 245 244 239 234 233 235 238 239 247 263 267 269 277 286 293 298 300 304 306 308 311 315 318 321 323 324 325 327 329 329 329 330 330
223 219 216 212 216 226 228 231 237 235 234 240 239 236 240 242 242 243 245 248 252 250 245 238 233 234 236 234 226 221 220 223 226 228 231 235 237 238 238 238 240 242 242 242 243 244 246 246 244 243 246 249 252 252 249 247 246 245 245 245 251 265 269 268 275 282 286 290 294 298 301 305 309 313 315 317 319 320 321 324 325 326 326 327 327
216 216 213 211 214 226 235 237 238 234 229 233 237 236 237 237 237 236 235 240 247 247 245 241 235 233 235 237 232 225 221 220 222 226 230 234 237 239 239 240 241 243 244 244 243 243 245 246 243 240 239 243 246 246 246 248 250 251 252 251 251 255 261 264 269 277 281 285 289 293 297 301 305 308 311 314 316 316 318 319 320 321 322 324 324
213 216 213 210 212 222 232 234 234 235 234 234 234 236 237 233 233 235 231 234 242 245 245 243 239 234 233 236 236 231 226 221 218 221 227 232 236 237 239 240 241 244 245 246 245 243 242 237 233 231 229 229 231 235 239 242 244 245 246 245 242 245 253 259 264 273 278 282 285 288 293 297 301 306 311 313 312 312 313 315 316 317 319 322 321
212 214 211 208 211 221 227 228 232 234 235 236 234 238 242 235 233 236 233 234 237 241 246 247 243 237 233 233 236 236 232 227 222 220 223 229 233 236 237 239 241 243 246 247 245 242 241 236 226 223 224 225 227 230 234 237 238 237 238 238 239 245 253 259 265 272 277 279 282 285 289 293 297 304 309 309 308 308 309 311 313 315 317 319 317
212 208 205 205 208 219 225 225 228 230 232 236 238 244 247 240 236 234 232 236 237 238 245 249 248 243 237 233 234 237 236 233 228 224 224 225 228 232 235 238 240 243 245 246 245 243 242 240 232 228 230 234 237 240 243 247 249 247 246 246 248 253 257 263 269 273 275 276 279 283 285 289 296 302 305 304 304 304 306 309 312 314 316 316 315
214 209 202 202 206 214 222 224 224 225 228 235 240 244 243 239 237 231 231 236 236 235 243 249 250 247 242 236 233 235 236 235 232 229 227 225 226 229 233 236 238 242 245 245 245 244 244 244 241 237 238 242 247 250 254 259 262 261 259 257 258 260 263 267 272 274 273 274 277 280 283 291 298 300 301 302 302 304 306 309 311 312 313 312 312
217 216 210 205 205 210 218 223 221 219 221 229 238 241 239 238 237 234 235 236 231 232 241 247 252 254 249 242 235 234 236 236 234 232 229 227 227 227 229 234 237 240 244 245 245 244 245 245 245 244 244 248 252 254 258 263 265 264 263 261 261 261 263 266 272 276 275 274 276 276 283 294 298 298 300 302 303 304 305 306 308 309 309 309 309
218 220 221 217 211 210 215 221 221 217 218 225 233 236 236 236 235 235 240 239 231 230 238 245 254 259 255 248 241 236 237 238 236 234 231 228 228 227 226 229 234 238 242 245 246 245 246 247 246 246 246 249 252 254 257 260 262 263 263 263 262 262 262 263 269 276 277 275 271 271 284 293 294 296 299 301 303 303 303 303 304 305 305 306 307
222 222 224 226 222 216 214 218 220 219 220 225 230 232 234 234 234 236 240 242 235 228 233 243 251 256 257 252 245 238 237 239 239 237 233 230 228 228 226 225 228 233 240 245 247 247 247 248 248 247 248 249 251 254 257 258 259 260 262 263 265 265 265 266 268 272 274 273 271 275 284 288 289 293 295 297 300 300 299 299 300 302 303 304 306
227 225 225 228 228 224 220 220 222 222 223 228 231 233 235 236 237 236 237 239 237 230 232 242 247 249 252 251 245 240 237 238 240 240 237 233 230 229 228 226 226 228 234 240 244 246 245 245 246 247 249 251 252 254 255 255 257 258 261 264 267 269 270 270 270 272 274 274 274 278 282 283 286 289 292 295 297 297 296 296 297 300 301 303 306
231 229 228 229 231 230 229 228 228 227 227 231 233 233 234 236 237 235 233 235 236 233 235 241 243 242 244 247 246 242 238 237 240 241 241 238 234 232 230 228 227 227 229 234 237 242 244 242 242 244 247 249 250 252 253 255 257 259 262 266 270 271 272 272 272 273 275 276 276 278 279 280 283 286 289 293 296 295 293 293 296 299 301 303 306
233 232 230 231 233 234 235 235 235 234 231 231 231 230 232 234 235 234 230 232 234 234 235 238 238 236 237 242 247 244 240 238 240 242 243 241 239 236 234 232 229 228 229 232 234 237 240 242 241 242 244 247 249 250 253 255 258 261 264 268 270 271 271 271 272 272 273 274 276 279 279 279 281 284 288 292 293 292 291 292 295 298 300 302 304
234 234 232 232 232 234 236 237 238 238 236 232 228 226 229 232 234 233 231 232 234 234 234 235 235 232 232 238 243 242 241 240 240 241 241 242 241 239 238 235 232 230 230 232 234 236 239 242 243 244 245 248 250 252 254 256 259 261 264 266 268 268 268 267 268 269 270 272 275 278 279 279 281 285 288 291 290 289 289 292 296 297 298 299 302
236 235 234 233 233 233 235 236 237 238 238 235 230 226 226 229 232 233 234 234 235 235 235 235 234 231 231 235 238 238 238 238 238 239 238 239 241 241 239 237 235 233 231 232 233 235 238 241 243 245 246 248 251 252 253 255 257 260 262 263 264 264 265 265 266 268 269 271 274 277 278 279 281 284 288 288 287 287 289 292 295 296 296 298 301
238 237 236 235 235 235 235 235 235 236 238 237 234 230 228 227 229 232 235 236 236 237 237 236 234 231 230 232 233 234 235 234 235 237 236 236 240 242 242 240 238 237 235 234 234 235 236 238 241 244 245 247 250 251 252 254 256 258 260 260 260 261 264 266 267 267 268 270 273 275 278 280 282 284 285 285 285 286 289 293 295 295 296 299 303
240 240 239 237 237 237 237 237 236 236 237 238 237 236 233 231 229 230 234 236 236 237 238 237 234 231 231 230 229 231 232 233 234 233 233 234 235 238 242 243 241 240 239 238 238 238 237 237 240 242 244 245 248 250 252 252 254 255 257 258 259 260 263 266 267 267 268 270 273 276 278 280 282 282 282 283 284 286 289 292 294 295 298 301 304
241 241 242 241 239 238 238 238 238 238 238 239 240 239 238 237 234 231 232 236 237 237 238 237 234 232 233 232 230 229 228 229 232 232 229 230 232 234 238 241 243 243 242 241 240 241 240 238 239 240 241 241 244 248 251 251 251 252 254 257 260 261 263 265 267 268 270 272 274 276 278 279 280 280 281 282 283 286 289 291 295 299 302 303 304
241 241 242 243 242 241 240 239 239 239 239 240 241 242 241 241 240 236 233 235 238 238 238 238 235 232 233 235 234 232 229 227 230 231 229 228 230 232 234 236 239 241 240 238 237 238 240 240 240 240 240 240 242 246 250 251 251 252 253 255 258 260 261 263 266 269 272 274 274 275 276 277 278 279 280 281 282 284 287 293 299 303 304 305 307
241 241 241 241 242 243 242 241 240 239 240 241 242 243 243 242 243 242 237 235 236 237 238 239 238 235 233 234 235 235 233 231 230 230 228 227 228 231 232 232 235 237 236 233 230 230 233 236 238 240 241 242 244 246 249 251 252 253 253 252 253 255 257 259 263 267 272 274 273 273 275 276 277 278 279 280 281 283 288 296 301 303 305 308 310
242 242 242 241 241 242 242 243 242 241 240 241 242 243 244 243 243 244 242 239 237 237 237 238 239 238 235 234 234 236 236 236 235 232 228 226 226 228 230 230 232 235 234 231 227 224 225 230 235 239 240 242 246 247 249 251 251 251 253 252 251 252 254 256 260 265 270 272 272 273 275 275 275 276 277 277 278 282 290 296 299 303 307 309 310
244 244 244 243 243 243 242 242 243 243 242 242 242 243 244 244 244 244 244 242 240 239 237 236 237 238 238 236 234 234 236 238 239 237 233 229 227 228 231 231 232 235 236 234 232 228 225 227 232 236 238 240 244 247 247 248 248 248 251 253 252 252 253 254 259 264 267 269 270 271 271 271 271 273 274 274 276 281 287 292 297 302 306 308 311
245 245 245 244 244 244 244 243 243 243 244 243 243 243 244 245 244 244 244 244 242 241 239 237 236 237 238 237 235 233 235 237 239 239 238 234 231 231 233 232 232 235 237 236 236 235 233 230 229 233 237 239 242 244 241 244 249 248 250 254 255 255 254 255 259 263 264 265 266 266 266 267 267 268 269 269 272 277 283 289 295 301 305 308 312
246 246 246 245 245 244 244 244 244 244 244 244 244 244 244 245 245 245 245 245 244 243 242 240 238 236 236 237 236 234 234 235 237 238 239 237 234 234 235 233 231 232 234 235 234 235 236 234 231 234 239 242 244 244 241 243 246 244 244 249 253 253 251 249 252 256 259 261 263 264 265 265 264 262 262 263 266 273 281 287 292 298 302 305 308
248 247 247 246 246 246 245 245 245 245 244 244 244 244 245 245 246 246 245 245 245 244 243 242 241 238 236 236 236 235 234 234 236 237 239 239 238 236 235 235 232 231 232 234 234 233 233 236 236 237 241 243 245 245 243 244 244 242 242 247 249 247 243 241 242 246 250 255 260 263 264 262 260 257 256 258 264 272 280 285 289 294 298 301 305
250 250 249 249 248 247 246 246 245 245 245 245 245 245 245 246 246 246 246 246 246 245 244 243 242 241 239 237 236 236 235 235 236 237 238 239 239 238 237 236 235 233 233 233 233 234 234 236 239 240 241 243 245 245 245 246 246 245 246 249 250 247 245 246 249 251 251 252 256 261 261 260 258 256 255 258 264 271 277 282 286 290 294 297 301
250 250 250 250 250 249 248 247 247 246 246 245 245 245 245 246 246 247 247 246 246 246 246 244 244 243 242 240 238 236 236 236 236 237 237 238 238 239 239 239 239 237 236 234 234 235 236 237 239 241 242 242 243 245 246 247 247 248 248 249 251 251 251 252 256 260 261 257 255 256 257 257 257 256 257 260 264 270 275 280 283 287 291 294 299
250 250 250 250 251 251 251 250 249 248 248 247 246 245 245 245 246 246 247 247 246 246 247 246 245 244 243 243 241 239 238 237 236 237 238 238 238 239 240 241 241 240 239 238 237 237 238 237 238 241 242 242 242 243 246 248 249 250 250 250 251 252 253 254 255 261 265 264 260 259 257 256 256 257 259 261 265 270 274 278 282 285 288 291 296
250 251 251 250 251 251 251 251 251 251 250 249 248 247 246 246 246 246 246 247 247 247 247 247 247 246 244 244 243 243 241 239 238 238 238 239 239 239 240 240 241 241 240 239 239 240 241 239 239 241 242 243 244 245 246 248 250 251 251 251 251 253 255 255 255 258 263 264 264 263 262 261 259 259 260 261 265 269 273 277 280 283 286 289 294
251 251 251 251 251 251 251 251 252 252 251 251 250 249 248 247 246 246 246 246 247 247 247 247 247 247 246 245 245 244 244 242 240 239 239 239 240 240 240 240 241 241 240 240 239 241 243 242 240 241 242 242 244 247 248 250 250 250 251 253 255 256 257 258 258 257 259 261 263 265 267 267 265 263 262 263 266 270 273 276 279 282 285 287 291
251 251 251 251 251 251 251 251 251 251 251 251 251 251 251 250 249 247 246 246 246 247 247 248 248 248 248 247 247 246 245 244 243 242 240 240 240 241 241 241 241 241 241 240 239 240 243 244 242 241 242 242 243 246 248 251 252 252 251 252 255 258 260 262 262 260 260 260 262 265 267 268 267 266 266 266 269 272 274 276 278 281 283 285 288
252 252 252 252 252 252 251 251 251 251 251 251 251 251 251 251 251 250 248 247 247 247 247 247 248 248 248 248 248 248 247 246 246 245 243 242 241 241 241 242 241 241 241 241 241 240 242 244 244 243 243 243 244 245 247 249 252 255 254 253 252 255 260 263 264 262 261 261 263 265 266 268 268 268 268 269 271 272 274 275 277 279 281 283 285
253 253 253 253 253 253 252 252 252 252 251 251 251 251 251 251 252 251 250 249 248 248 247 247 247 247 248 248 248 248 248 248 247 247 246 245 243 242 242 242 242 242 242 241 242 242 242 244 245 245 245 245 245 246 247 248 249 251 254 256 255 254 258 263 264 262 261 261 263 264 265 267 268 269 269 270 271 272 273 274 275 277 278 280 283
255 255 254 254 254 253 253 253 252 252 252 252 252 252 251 251 252 252 252 251 250 249 249 248 248 248 247 247 248 248 248 248 248 248 248 248 246 245 244 243 243 243 243 243 243 243 243 244 246 246 246 247 248 248 248 249 249 248 249 253 256 255 257 261 263 262 261 261 261 263 264 265 267 268 269 270 270 271 272 272 274 275 277 279 281
255 255 255 255 254 254 254 253 253 253 252 252 252 251 251 251 251 251 252 252 251 250 250 249 249 249 248 247 247 248 248 248 248 248 249 249 248 248 246 246 245 244 244 244 244 244 244 244 246 247 247 248 249 250 250 250 251 250 249 251 254 255 256 258 261 261 260 261 261 261 263 264 266 267 268 269 270 270 271 272 273 274 276 278 280
255 255 255 255 254 254 254 254 254 253 253 252 252 251 251 251 251 251 251 252 252 251 251 250 250 250 249 248 248 248 248 247 247 247 248 249 249 249 249 248 247 247 246 245 245 244 244 244 245 247 248 248 249 250 251 252 253 253 253 252 252 253 253 255 257 258 259 261 262 262 263 264 265 265 267 268 269 270 271 272 273 274 276 278 280
255 255 254 254 254 254 254 254 254 254 254 253 253 252 252 251 251 251 251 251 252 252 252 251 251 250 250 250 249 248 248 247 247 247 247 247 248 249 249 249 248 248 248 248 247 246 245 245 245 246 247 249 249 249 250 252 253 254 254 252 252 252 252 252 254 256 258 260 262 262 263 263 264 265 266 267 269 270 272 274 275 276 277 278 280
255 255 255 255 254 254 254 254 254 254 254 254 254 253 253 252 252 251 251 251 252 252 252 251 251 251 250 250 250 250 249 248 247 247 247 247 247 247 248 249 249 249 248 248 248 248 248 247 247 246 247 248 249 249 248 249 251 252 254 255 254 254 253 254 255 257 257 259 260 261 261 262 263 263 264 266 268 270 272 274 276 277 278 278 279
256 256 256 255 255 255 255 254 254 254 254 254 254 254 253 253 253 252 252 251 251 251 251 251 251 251 251 250 250 250 250 249 248 248 247 247 246 246 247 248 249 250 250 249 249 248 249 249 249 249 248 248 249 249 248 248 249 251 253 255 256 256 256 256 256 256 257 258 259 259 259 260 261 261 263 264 266 269 271 272 274 276 277 278 279
257 257 256 256 256 255 255 255 255 255 254 254 254 254 253 253 253 252 252 252 252 251 251 251 251 251 250 250 250 250 250 250 249 249 248 247 246 246 246 246 247 248 249 250 250 249 248 248 249 250 250 250 250 250 249 248 248 249 252 253 255 256 257 257 257 256 256 256 257 257 259 259 260 260 262 264 265 267 269 270 272 274 276 277 278
258 258 257 257 256 256 256 256 256 256 255 255 254 254 254 253 253 253 252 252 252 252 251 250 250 250 250 250 250 249 249 250 250 249 249 248 247 246 245 245 246 247 248 249 249 250 249 248 248 249 250 250 250 251 250 249 248 247 249 252 254 255 256 256 257 256 255 255 256 256 258 260 261 262 262 262 263 265 268 270 272 274 276 277 277
259 259 258 258 257 257 257 257 256 256 256 256 255 255 254 254 254 253 253 252 252 252 251 250 250 250 250 250 249 249 249 249 249 249 249 249 248 247 246 245 245 245 246 247 248 249 250 249 249 249 249 249 249 250 250 250 250 248 248 250 253 254 255 255 256 257 258 257 256 256 257 260 262 263 262 261 262 265 268 271 273 274 276 276 277
260 260 259 259 258 258 257 257 257 257 257 256 256 255 255 255 254 254 253 253 253 253 252 251 250 250 249 249 249 249 249 249 248 249 249 249 249 248 247 245 245 245 245 245 246 247 249 250 249 249 250 249 249 249 249 250 250 251 250 250 252 254 255 256 258 259 260 258 258 259 260 260 261 262 262 262 264 267 269 271 272 273 274 275 277
261 261 260 260 260 259 259 258 258 258 257 257 256 256 255 255 255 254 254 254 253 253 253 252 251 251 250 249 249 249 249 249 248 248 248 248 248 248 248 246 245 244 244 244 245 245 246 248 248 248 249 250 249 250 250 250 250 251 251 252 253 254 256 258 259 259 259 258 260 261 261 261 261 261 261 262 265 267 269 271 272 272 273 275 276
260 260 261 261 261 260 260 259 259 258 258 258 257 257 256 256 255 255 254 254 253 253 253 253 252 252 251 250 249 249 249 249 249 248 247 247 247 248 248 247 246 245 244 244 244 244 245 246 247 247 248 249 250 250 251 251 250 250 251 252 253 254 256 257 258 259 259 259 259 260 261 260 260 260 260 262 264 267 268 270 270 271 273 274 275
261 261 261 261 261 261 260 260 259 259 259 259 258 258 258 257 257 256 255 254 254 253 253 253 252 252 251 251 250 249 249 249 249 248 247 246 246 246 247 247 247 246 245 245 244 244 244 245 245 246 247 248 249 249 250 251 251 251 250 251 252 253 255 256 257 258 258 259 259 260 261 261 260 260 261 262 264 266 267 269 269 270 271 273 274
261 261 262 262 262 261 261 260 260 259 259 259 259 259 259 258 258 257 256 255 255 254 253 252 252 251 251 251 250 249 249 248 248 249 248 247 246 245 246 247 247 247 246 246 245 244 244 244 245 245 246 247 248 248 249 250 251 251 251 251 251 252 253 254 255 256 257 259 260 261 261 261 261 261 262 263 264 266 267 268 268 269 270 270 272
262 262 262 262 262 262 261 261 260 260 260 260 260 260 259 259 258 257 256 255 255 254 253 252 252 251 250 250 250 249 248 247 247 248 248 248 247 245 245 245 246 247 247 246 245 244 244 244 245 245 246 246 247 247 248 248 250 251 251 251 251 251 252 253 254 255 256 257 258 259 260 260 261 262 262 263 264 265 265 266 267 268 269 270 271
Height
10757 10760 10760 10760 10761 10762 10762 10763 10764 10765 10767 10768 10769 10769 10770 10771 10772 10772 10773 10773 10774 10775 10775 10775 10776 10777 10778 10779 10782 10783 10784 10785 10788 10791 10792 10794 10795 10798 10800 10802 10804 10806 10808 10809 10810 10811 10813 10814 10815 10816 10818 10819 10820 10821 10821 10822 10822 10823 10823 10823 10823 10824 10824 10824 10824 10824 10824 10824 10824 10823 10823 10823 10822 10821 10820 10819 10818 10817 10815 10814 10812 10811 10809 10807 10805
10753 10756 10756 10756 10757 10758 10759 10760 10760 10762 10764 10765 10766 10766 10767 10768 10769 10770 10770 10770 10771 10772 10773 10773 10774 10774 10775 10777 10779 10781 10782 10782 10785 10788 10789 10791 10792 10794 10797 10799 10801 10803 10805 10806 10807 10808 10810 10811 10812 10814 10815 10816 10817 10818 10819 10820 10820 10821 10821 10821 10822 10822 10822 10822 10822 10822 10822 10822 10822 10822 10821 10821 10820 10820 10819 10817 10816 10815 10814 10812 10811 10809 10807 10805 10803
10748 10751 10752 10752 10753 10755 10756 10756 10757 10759 10761 10762 10763 10763 10765 10766 10767 10767 10767 10767 10768 10769 10770 10771 10771 10772 10773 10774 10776 10778 10779 10780 10782 10785 10786 10788 10789 10791 10794 10795 10797 10799 10801 10803 10804 10805 10807 10808 10809 10811 10812 10814 10815 10816 10817 10818 10818 10819 10819 10820 10820 10820 10820 10820 10820 10820 10820 10820 10820 10820 10820 10819 10818 10818 10817 10816 10814 10813 10812 10810 10809 10807 10806 10804 10801
10743 10746 10747 10748 10749 10751 10752 10752 10753 10756 10758 10758 10760 10761 10762 10763 10764 10764 10764 10765 10765 10766 10767 10768 10769 10769 10770 10771 10773 10775 10777 10777 10779 10782 10784 10785 10786 10788 10791 10792 10793 10795 10798 10800 10801 10803 10804 10806 10806 10808 10809 10811 10812 10814 10815 10816 10816 10817 10817 10818 10818 10819 10819 10818 10818 10818 10818 10818 10818 10818 10818 10817 10817 10816 10815 10814 10812 10811 10810 10809 10807 10806 10804 10802 10800
10739 10742 10743 10745 10747 10748 10749 10749 10750 10753 10755 10756 10757 10758 10759 10760 10760 10760 10761 10762 10763 10763 10764 10765 10766 10767 10768 10769 10771 10773 10774 10775 10777 10778 10780 10782 10783 10785 10787 10789 10790 10792 10794 10796 10798 10800 10802 10803 10804 10805 10806 10808 10810 10811 10812 10813 10814 10815 10815 10816 10816 10816 10817 10816 10816 10816 10816 10816 10816 10816 10816 10815 10815 10814 10813 10812 10810 10809 10808 10807 10805 10804 10802 10800 10798
10736 10738 10740 10742 10745 10746 10746 10747 10747 10748 10751 10753 10754 10755 10756 10757 10757 10757 10758 10759 10760 10760 10761 10762 10763 10764 10765 10767 10768 10770 10771 10773 10774 10775 10777 10778 10780 10782 10784 10786 10787 10788 10790 10793 10795 10798 10799 10800 10801 10802 10803 10805 10806 10807 10809 10810 10811 10812 10812 10813 10813 10814 10814 10814 10814 10814 10814 10814 10814 10814 10814 10813 10813 10812 10811 10810 10808 10807 10806 10805 10803 10802 10800 10799 10796
10732 10734 10737 10739 10742 10743 10742 10743 10744 10745 10748 10750 10751 10751 10752 10753 10754 10754 10755 10755 10756 10757 10758 10759 10760 10761 10763 10764 10765 10766 10767 10769 10771 10772 10774 10775 10777 10778 10780 10782 10783 10785 10787 10790 10792 10794 10797 10797 10798 10799 10800 10802 10803 10804 10806 10807 10808 10808 10809 10810 10810 10811 10811 10811 10811 10811 10811 10811 10811 10811 10811 10811 10810 10810 10809 10808 10807 10805 10804 10802 10801 10800 10798 10797 10794
10728 10731 10734 10736 10738 10738 10737 10739 10741 10743 10746 10747 10746 10745 10747 10750 10751 10751 10752 10752 10753 10754 10755 10756 10757 10758 10759 10761 10762 10763 10764 10766 10768 10770 10771 10772 10774 10775 10776 10778 10780 10782 10784 10787 10789 10791 10793 10795 10796 10797 10798 10799 10800 10802 10803 10804 10805 10805 10806 10807 10807 10808 10808 10808 10808 10809 10809 10809 10809 10809 10809 10809 10808 10808 10807 10806 10804 10803 10802 10800 10799 10797 10796 10794 10792
10723 10727 10730 10732 10734 10733 10732 10735 10738 10740 10743 10743 10743 10742 10743 10747 10748 10748 10749 10749 10750 10750 10751 10753 10754 10755 10756 10757 10759 10760 10761 10762 10764 10766 10767 10769 10770 10771 10773 10775 10777 10778 10780 10783 10785 10787 10790 10791 10793 10794 10795 10796 10797 10799 10800 10801 10802 10803 10804 10804 10805 10805 10805 10806 10806 10806 10806 10806 10806 10806 10806 10806 10805 10805 10805 10804 10802 10800 10799 10798 10796 10795 10793 10792 10790
10718 10722 10726 10728 10728 10727 10727 10731 10734 10737 10739 10738 10738 10739 10740 10742 10744 10745 10745 10746 10747 10747 10748 10749 10751 10752 10753 10754 10755 10756 10757 10758 10760 10762 10763 10765 10766 10768 10770 10771 10773 10775 10777 10780 10782 10784 10786 10788 10790 10791 10792 10794 10794 10796 10796 10797 10798 10799 10801 10801 10802 10802 10802 10803 10803 10803 10803 10803 10803 10803 10803 10803 10802 10802 10802 10801 10799 10798 10796 10795 10794 10792 10791 10789 10787
10713 10716 10720 10722 10724 10723 10723 10726 10729 10733 10735 10734 10734 10735 10736 10738 10741 10741 10741 10742 10744 10744 10744 10746 10748 10750 10750 10751 10752 10752 10753 10754 10756 10758 10759 10761 10763 10764 10766 10768 10770 10771 10773 10775 10778 10780 10782 10784 10786 10788 10789 10790 10791 10792 10793 10794 10795 10796 10797 10798 10799 10799 10799 10799 10800 10800 10800 10800 10800 10801 10801 10800 10799 10799 10798 10798 10797 10795 10794 10792 10791 10790 10788 10787 10785
10709 10711 10714 10717 10719 10720 10720 10721 10723 10728 10731 10730 10730 10732 10733 10735 10737 10738 10738 10739 10740 10740 10741 10743 10745 10747 10748 10748 10749 10749 10749 10750 10753 10754 10755 10757 10758 10760 10762 10764 10766 10768 10770 10772 10774 10776 10778 10780 10782 10784 10785 10786 10787 10789 10790 10791 10791 10792 10793 10794 10795 10795 10796 10796 10796 10796 10797 10797 10798 10798 10798 10797 10796 10795 10795 10795 10794 10793 10791 10789 10788 10787 10785 10784 10783
10704 10707 10709 10710 10713 10714 10715 10716 10718 10723 10726 10726 10727 10728 10730 10732 10733 10734 10735 10736 10736 10737 10738 10740 10741 10743 10744 10745 10745 10746 10746 10746 10748 10749 10751 10752 10753 10755 10758 10760 10763 10765 10767 10769 10770 10772 10775 10777 10778 10780 10781 10782 10784 10785 10786 10787 10787 10788 10789 10790 10791 10792 10792 10793 10793 10793 10793 10794 10795 10795 10794 10794 10793 10792 10792 10791 10791 10790 10788 10786 10785 10783 10782 10781 10780
10699 10702 10704 10705 10706 10708 10710 10712 10714 10717 10720 10722 10723 10724 10726 10727 10728 10729 10731 10732 10732 10733 10735 10736 10737 10739 10741 10741 10741 10743 10743 10743 10743 10745 10747 10748 10750 10751 10753 10756 10759 10761 10763 10765 10766 10768 10771 10773 10775 10776 10777 10779 10780 10781 10782 10783 10784 10785 10785 10786 10787 10788 10788 10789 10790 10790 10790 10790 10791 10791 10791 10791 10790 10789 10788 10788 10787 10786 10785 10783 10782 10780 10778 10777 10776
10694 10697 10699 10700 10701 10703 10705 10707 10709 10712 10715 10717 10719 10720 10722 10722 10722 10724 10727 10728 10727 10729 10731 10732 10734 10735 10737 10737 10738 10739 10740 10740 10739 10740 10743 10745 10747 10747 10749 10752 10754 10757 10759 10761 10762 10764 10766 10769 10771 10772 10773 10774 10776 10777 10778 10779 10780 10781 10781 10782 10783 10784 10784 10785 10785 10786 10786 10786 10787 10788 10788 10787 10786 10785 10785 10784 10784 10783 10781 10780 10778 10777 10775 10774 10773
10689 10691 10693 10695 10696 10698 10699 10701 10704 10706 10709 10712 10714 10716 10717 10717 10717 10720 10723 10723 10723 10725 10727 10728 10729 10731 10733 10734 10734 10736 10736 10736 10737 10738 10739 10741 10743 10744 10745 10748 10750 10752 10754 10756 10758 10760 10761 10764 10766 10768 10769 10770 10771 10773 10774 10775 10776 10777 10777 10778 10778 10779 10780 10781 10781 10781 10782 10782 10782 10783 10784 10783 10782 10782 10781 10781 10780 10778 10777 10776 10776 10774 10772 10771 10770
10684 10686 10688 10689 10691 10693 10694 10696 10698 10700 10703 10706 10709 10710 10711 10713 10714 10716 10718 10719 10719 10722 10723 10723 10724 10727 10729 10730 10731 10732 10731 10733 10734 10734 10736 10737 10738 10740 10742 10743 10745 10748 10749 10751 10753 10756 10758 10759 10762 10764 10765 10765 10766 10768 10769 10770 10771 10772 10773 10773 10773 10773 10774 10776 10776 10776 10778 10778 10778 10779 10779 10779 10778 10778 10777 10777 10776 10774 10772 10773 10773 10771 10769 10768 10766
10679 10681 10682 10684 10686 10688 10689 10691 10693 10694 10697 10700 10703 10705 10706 10708 10710 10711 10713 10714 10716 10718 10718 10718 10721 10724 10725 10724 10726 10727 10728 10730 10731 10730 10732 10733 10734 10736 10737 10739 10741 10743 10744 10746 10748 10751 10753 10755 10757 10759 10760 10761 10762 10764 10765 10765 10766 10767 10768 10768 10768 10768 10769 10770 10771 10771 10773 10774 10774 10774 10775 10774 10774 10774 10773 10772 10771 10769 10768 10769 10769 10768 10766 10764 10763
10674 10675 10677 10679 10681 10683 10684 10686 10688 10689 10691 10693 10696 10699 10701 10703 10705 10706 10707 10709 10711 10713 10713 10715 10719 10720 10719 10719 10721 10722 10724 10726 10727 10727 10728 10729 10730 10732 10732 10734 10736 10739 10740 10742 10743 10746 10748 10751 10752 10753 10755 10757 10758 10758 10760 10761 10762 10763 10763 10763 10763 10764 10764 10765 10766 10767 10768 10770 10770 10770 10770 10770 10770 10770 10769 10768 10766 10765 10764 10765 10765 10764 10762 10761 10759
10669 10670 10671 10673 10675 10677 10679 10680 10682 10684 10685 10687 10690 10692 10694 10697 10700 10701 10702 10703 10706 10708 10708 10711 10714 10714 10713 10715 10716 10717 10719 10721 10722 10723 10724 10725 10726 10727 10728 10730 10732 10734 10736 10737 10739 10741 10743 10745 10746 10748 10750 10753 10753 10753 10754 10757 10758 10759 10758 10758 10758 10760 10761 10760 10761 10761 10763 10766 10766 10766 10766 10766 10766 10766 10765 10764 10762 10761 10761 10761 10761 10760 10759 10757 10756
10663 10665 10666 10667 10669 10671 10673 10674 10676 10678 10679 10681 10683 10685 10688 10690 10693 10695 10696 10698 10700 10702 10703 10706 10709 10709 10709 10712 10712 10712 10713 10715 10716 10718 10720 10720 10721 10722 10724 10726 10728 10729 10731 10733 10735 10737 10739 10741 10741 10743 10746 10747 10748 10748 10749 10751 10753 10754 10754 10754 10754 10756 10757 10756 10756 10757 10759 10762 10762 10761 10761 10761 10762 10761 10760 10760 10759 10758 10757 10758 10757 10757 10755 10754 10753
10658 10659 10660 10661 10663 10664 10666 10668 10670 10671 10673 10674 10676 10679 10681 10683 10685 10688 10690 10692 10694 10696 10698 10700 10703 10704 10705 10707 10708 10708 10709 10710 10711 10712 10715 10716 10717 10718 10720 10722 10723 10724 10726 10728 10730 10733 10735 10736 10737 10738 10741 10742 10743 10743 10744 10745 10747 10748 10748 10749 10750 10751 10753 10752 10752 10752 10755 10757 10758 10757 10756 10757 10757 10757 10756 10755 10755 10754 10754 10754 10754 10753 10751 10750 10749
10651 10653 10654 10656 10657 10658 10659 10661 10663 10665 10666 10668 10669 10671 10674 10676 10678 10680 10683 10685 10687 10689 10691 10693 10696 10699 10700 10702 10703 10703 10704 10706 10706 10707 10710 10712 10713 10713 10714 10717 10719 10720 10722 10724 10726 10728 10730 10732 10733 10734 10736 10738 10738 10739 10740 10741 10742 10742 10742 10743 10745 10746 10748 10749 10748 10748 10750 10752 10753 10753 10752 10752 10753 10753 10752 10752 10751 10751 10751 10750 10750 10749 10747 10746 10745
10645 10646 10648 10649 10650 10651 10653 10654 10656 10658 10659 10661 10662 10665 10667 10669 10671 10673 10676 10678 10680 10682 10684 10686 10689 10692 10694 10696 10697 10698 10700 10701 10701 10702 10705 10706 10707 10709 10709 10712 10715 10717 10718 10720 10722 10724 10726 10727 10728 10729 10731 10733 10733 10735 10736 10737 10738 10738 10737 10737 10739 10742 10744 10745 10745 10746 10747 10748 10748 10748 10748 10748 10748 10748 10748 10748 10748 10748 10747 10746 10746 10745 10744 10743 10742
10638 10639 10641 10642 10643 10644 10646 10647 10649 10651 10653 10654 10656 10658 10660 10662 10664 10666 10668 10671 10673 10675 10677 10679 10682 10684 10686 10689 10691 10692 10694 10695 10696 10698 10700 10701 10703 10704 10704 10707 10711 10713 10715 10717 10719 10720 10721 10722 10723 10724 10726 10728 10729 10730 10732 10732 10733 10734 10734 10733 10735 10738 10741 10742 10742 10742 10743 10744 10744 10744 10744 10743 10743 10744 10744 10744 10744 10744 10743 10743 10742 10741 10740 10739 10739
10630 10632 10633 10634 10636 10637 10639 10640 10642 10644 10645 10647 10649 10651 10653 10655 10657 10659 10660 10663 10666 10668 10670 10672 10674 10677 10679 10682 10685 10687 10688 10689 10691 10693 10695 10697 10699 10700 10700 10704 10708 10709 10711 10713 10715 10716 10717 10718 10719 10720 10722 10724 10725 10726 10727 10728 10728 10730 10731 10730 10731 10734 10736 10737 10738 10738 10739 10740 10740 10740 10739 10739 10739 10739 10740 10740 10740 10740 10739 10739 10738 10738 10737 10736 10735
10622 10624 10625 10626 10628 10630 10631 10633 10635 10637 10638 10640 10642 10644 10646 10647 10649 10651 10653 10655 10658 10661 10662 10664 10666 10669 10672 10674 10677 10680 10682 10683 10685 10687 10689 10692 10694 10695 10696 10699 10702 10704 10706 10708 10711 10712 10712 10713 10715 10717 10718 10720 10722 10723 10724 10723 10724 10725 10726 10727 10728 10729 10731 10732 10733 10733 10734 10735 10735 10735 10735 10735 10735 10735 10735 10736 10736 10736 10735 10735 10734 10734 10733 10733 10732
10614 10615 10616 10618 10620 10622 10624 10625 10627 10629 10630 10632 10634 10636 10638 10639 10641 10643 10645 10647 10650 10652 10654 10656 10658 10661 10664 10667 10670 10672 10674 10676 10678 10680 10682 10685 10687 10689 10691 10693 10696 10699 10700 10703 10706 10707 10707 10708 10711 10713 10714 10716 10718 10720 10720 10719 10719 10722 10723 10724 10724 10725 10726 10727 10728 10729 10729 10730 10730 10731 10731 10731 10731 10731 10731 10731 10731 10731 10731 10731 10730 10730 10729 10729 10728
10605 10606 10608 10609 10611 10613 10615 10617 10619 10620 10622 10624 10626 10629 10630 10632 10633 10635 10637 10640 10642 10643 10646 10648 10650 10652 10656 10659 10662 10664 10666 10668 10671 10673 10676 10679 10681 10682 10684 10686 10689 10693 10695 10698 10700 10701 10702 10704 10706 10708 10710 10713 10715 10715 10715 10715 10715 10718 10720 10720 10721 10722 10722 10723 10724 10724 10725 10725 10726 10726 10727 10727 10727 10727 10727 10727 10727 10727 10727 10726 10726 10725 10725 10724 10724
10597 10598 10599 10600 10602 10604 10606 10608 10610 10612 10614 10616 10619 10621 10622 10623 10625 10626 10628 10631 10634 10635 10637 10640 10642 10645 10648 10650 10653 10656 10657 10660 10664 10666 10668 10672 10673 10675 10678 10680 10683 10687 10689 10691 10693 10694 10696 10698 10700 10701 10705 10709 10711 10710 10709 10710 10711 10714 10715 10716 10716 10718 10719 10720 10721 10721 10721 10721 10721 10722 10722 10723 10723 10723 10723 10723 10723 10723 10723 10722 10721 10721 10720 10720 10719
10589 10590 10591 10592 10594 10595 10597 10599 10601 10603 10605 10607 10610 10612 10614 10615 10616 10618 10620 10622 10625 10626 10628 10631 10633 10636 10640 10642 10645 10647 10649 10652 10656 10658 10661 10664 10666 10668 10671 10673 10676 10680 10682 10684 10688 10688 10688 10691 10694 10696 10699 10703 10705 10706 10704 10704 10706 10708 10710 10711 10712 10714 10715 10716 10717 10717 10717 10717 10717 10718 10718 10718 10719 10719 10719 10719 10718 10718 10718 10718 10717 10716 10716 10715 10714
10580 10581 10582 10584 10585 10587 10588 10590 10592 10594 10596 10598 10600 10603 10604 10606 10607 10609 10611 10613 10615 10617 10619 10622 10624 10627 10631 10634 10636 10639 10641 10644 10648 10650 10652 10655 10657 10660 10663 10666 10669 10672 10674 10678 10682 10681 10679 10683 10688 10690 10693 10697 10699 10700 10699 10699 10701 10703 10703 10705 10708 10709 10710 10711 10712 10713 10713 10713 10714 10714 10714 10714 10714 10714 10714 10714 10714 10714 10714 10713 10712 10712 10711 10710 10709
10571 10572 10573 10575 10577 10579 10580 10582 10583 10585 10587 10588 10591 10593 10594 10596 10597 10599 10601 10604 10606 10607 10609 10612 10615 10618 10622 10625 10627 10629 10632 10636 10639 10642 10644 10646 10649 10651 10654 10658 10661 10664 10666 10670 10674 10674 10671 10675 10681 10683 10686 10691 10693 10693 10694 10694 10695 10697 10698 10700 10703 10704 10705 10705 10706 10708 10708 10709 10709 10710 10710 10710 10710 10710 10709 10709 10709 10709 10709 10708 10707 10707 10706 10705 10704
10561 10562 10564 10566 10569 10570 10572 10573 10575 10576 10578 10579 10581 10583 10584 10585 10587 10589 10592 10594 10597 10599 10600 10602 10606 10609 10612 10615 10617 10619 10623 10627 10630 10632 10635 10638 10640 10643 10646 10649 10652 10655 10658 10661 10665 10668 10665 10665 10672 10677 10680 10685 10687 10687 10688 10689 10689 10690 10692 10695 10698 10699 10699 10700 10701 10702 10703 10704 10704 10705 10705 10706 10705 10705 10705 10704 10704 10704 10704 10704 10703 10702 10701 10700 10699
10551 10553 10555 10558 10560 10561 10562 10563 10565 10567 10568 10570 10571 10573 10574 10575 10576 10578 10581 10584 10587 10590 10591 10593 10596 10600 10603 10606 10608 10609 10613 10618 10621 10623 10625 10628 10631 10634 10636 10639 10643 10645 10648 10652 10656 10660 10659 10657 10662 10670 10673 10677 10681 10681 10682 10684 10684 10684 10685 10688 10692 10693 10693 10694 10695 10697 10698 10699 10699 10699 10700 10700 10701 10700 10700 10700 10699 10699 10699 10698 10697 10696 10696 10695 10693
10542 10544 10546 10548 10550 10551 10552 10553 10555 10557 10558 10560 10562 10563 10564 10565 10566 10568 10570 10574 10578 10580 10582 10584 10587 10590 10594 10596 10598 10599 10603 10608 10611 10612 10615 10617 10621 10625 10627 10630 10633 10635 10638 10643 10647 10650 10652 10650 10653 10661 10665 10668 10673 10675 10677 10679 10679 10678 10678 10680 10684 10687 10688 10688 10688 10689 10691 10693 10693 10693 10694 10694 10695 10695 10695 10695 10694 10694 10693 10692 10691 10691 10690 10689 10688
10532 10535 10537 10538 10539 10540 10541 10542 10544 10546 10548 10550 10552 10553 10554 10555 10556 10558 10560 10564 10567 10570 10573 10574 10577 10580 10584 10586 10588 10590 10593 10598 10601 10602 10604 10607 10610 10615 10618 10620 10623 10626 10628 10633 10637 10641 10644 10644 10645 10651 10657 10660 10664 10668 10670 10671 10671 10673 10674 10673 10675 10679 10682 10681 10681 10682 10684 10686 10687 10687 10687 10688 10689 10688 10688 10688 10688 10687 10686 10685 10685 10685 10684 10683 10682
10522 10524 10526 10527 10528 10529 10529 10530 10532 10535 10537 10539 10541 10541 10542 10544 10546 10548 10551 10554 10557 10560 10562 10564 10567 10570 10573 10576 10578 10579 10583 10587 10590 10592 10594 10596 10600 10604 10608 10610 10613 10616 10619 10623 10627 10631 10634 10637 10638 10641 10648 10652 10655 10659 10661 10661 10662 10665 10668 10668 10668 10671 10674 10674 10673 10674 10676 10678 10680 10680 10680 10681 10682 10682 10681 10681 10681 10680 10679 10678 10678 10679 10678 10677 10676
10512 10513 10515 10515 10516 10517 10517 10518 10520 10523 10525 10527 10528 10529 10531 10533 10536 10539 10542 10544 10547 10550 10552 10554 10556 10559 10562 10565 10567 10569 10572 10576 10579 10582 10584 10587 10590 10593 10597 10599 10601 10605 10609 10612 10617 10621 10625 10629 10630 10633 10638 10642 10645 10650 10652 10652 10654 10658 10661 10661 10660 10661 10665 10665 10665 10667 10670 10672 10672 10673 10673 10674 10674 10675 10674 10674 10674 10673 10672 10671 10672 10672 10672 10671 10671
10501 10503 10504 10504 10504 10504 10505 10507 10509 10511 10513 10514 10515 10517 10519 10522 10526 10529 10532 10534 10537 10540 10542 10543 10546 10548 10551 10553 10555 10557 10560 10564 10567 10571 10574 10576 10580 10583 10585 10587 10590 10594 10598 10601 10605 10610 10615 10619 10622 10625 10628 10631 10636 10642 10644 10644 10647 10648 10649 10649 10649 10652 10654 10656 10658 10661 10665 10665 10664 10665 10666 10666 10667 10668 10668 10667 10667 10666 10665 10665 10665 10666 10666 10666 10665
10490 10491 10492 10492 10492 10492 10494 10495 10497 10499 10501 10502 10503 10505 10507 10510 10514 10518 10521 10524 10527 10529 10531 10533 10535 10537 10540 10542 10544 10546 10548 10552 10555 10559 10562 10565 10569 10573 10574 10575 10579 10583 10587 10590 10595 10599 10604 10608 10612 10616 10618 10621 10626 10632 10635 10638 10638 10636 10636 10639 10641 10643 10644 10647 10652 10656 10657 10657 10656 10657 10657 10657 10659 10661 10661 10661 10660 10660 10659 10659 10659 10658 10659 10659 10658
10477 10479 10479 10479 10479 10480 10482 10484 10486 10488 10489 10490 10491 10492 10495 10498 10502 10506 10510 10513 10515 10518 10520 10522 10524 10526 10528 10531 10533 10535 10536 10540 10543 10546 10550 10553 10558 10562 10564 10565 10568 10572 10575 10580 10585 10589 10594 10597 10600 10604 10608 10613 10617 10620 10624 10629 10629 10628 10630 10631 10631 10632 10635 10640 10644 10647 10649 10648 10648 10648 10649 10649 10651 10654 10654 10654 10653 10653 10653 10652 10652 10651 10651 10651 10651
10464 10465 10466 10466 10467 10468 10470 10472 10474 10476 10477 10477 10478 10480 10483 10486 10490 10493 10497 10500 10503 10506 10509 10511 10512 10514 10516 10519 10522 10524 10526 10528 10530 10534 10537 10541 10545 10550 10553 10555 10557 10561 10565 10569 10574 10578 10583 10587 10589 10592 10598 10605 10606 10608 10613 10618 10621 10622 10622 10621 10622 10623 10626 10629 10633 10637 10639 10638 10638 10639 10640 10641 10644 10647 10647 10647 10646 10646 10646 10646 10645 10644 10644 10644 10644
10450 10451 10451 10453 10454 10456 10459 10461 10462 10463 10464 10464 10466 10468 10470 10473 10477 10480 10484 10487 10490 10493 10496 10499 10500 10502 10504 10507 10510 10512 10515 10516 10518 10521 10525 10528 10532 10537 10541 10544 10547 10551 10555 10559 10562 10565 10571 10576 10579 10582 10589 10594 10594 10597 10602 10606 10608 10611 10612 10612 10614 10616 10616 10618 10622 10626 10628 10629 10630 10631 10631 10632 10635 10639 10640 10640 10639 10639 10639 10638 10638 10638 10637 10637 10637
10435 10436 10437 10439 10441 10444 10446 10448 10449 10450 10451 10451 10453 10455 10457 10460 10464 10468 10472 10475 10478 10480 10483 10485 10488 10490 10492 10495 10497 10500 10502 10504 10507 10510 10512 10515 10519 10523 10528 10533 10536 10540 10544 10549 10552 10554 10558 10564 10569 10573 10577 10580 10583 10586 10590 10593 10595 10600 10604 10605 10605 10606 10607 10610 10612 10615 10619 10620 10619 10620 10623 10625 10627 10629 10631 10630 10631 10632 10632 10632 10632 10632 10631 10629 10629
10421 10421 10423 10425 10428 10431 10433 10434 10436 10437 10437 10438 10439 10442 10445 10448 10451 10455 10460 10463 10465 10467 10469 10472 10475 10478 10480 10482 10485 10488 10489 10491 10495 10497 10500 10502 10505 10510 10515 10521 10525 10529 10532 10538 10542 10545 10547 10552 10559 10563 10563 10566 10571 10574 10577 10582 10586 10589 10594 10596 10596 10597 10599 10601 10605 10609 10611 10609 10607 10610 10617 10619 10619 10621 10621 10620 10622 10624 10624 10625 10625 10624 10623 10622 10622
10406 10406 10408 10411 10414 10417 10419 10420 10422 10423 10423 10423 10425 10428 10431 10434 10438 10442 10447 10450 10452 10453 10455 10458 10461 10465 10468 10470 10473 10475 10476 10478 10481 10483 10487 10489 10492 10496 10502 10508 10513 10517 10522 10527 10531 10534 10537 10541 10547 10551 10551 10554 10560 10564 10566 10572 10577 10580 10583 10587 10589 10591 10592 10594 10599 10602 10601 10599 10599 10604 10610 10611 10611 10613 10613 10613 10615 10617 10617 10617 10617 10615 10614 10614 10614
10392 10392 10395 10398 10401 10403 10404 10406 10407 10408 10408 10408 10411 10414 10417 10420 10424 10428 10432 10436 10438 10440 10442 10444 10447 10451 10454 10457 10460 10462 10464 10465 10466 10468 10472 10476 10480 10484 10488 10493 10499 10505 10511 10516 10519 10523 10527 10530 10534 10539 10540 10543 10550 10555 10557 10561 10567 10571 10574 10578 10581 10584 10584 10586 10590 10593 10591 10591 10594 10596 10599 10602 10604 10605 10606 10607 10609 10609 10609 10609 10609 10607 10607 10607 10606
10378 10380 10383 10385 10387 10388 10389 10390 10391 10393 10393 10394 10396 10400 10403 10406 10410 10414 10418 10421 10424 10426 10429 10430 10433 10437 10440 10442 10446 10449 10452 10452 10452 10453 10456 10461 10467 10472 10475 10479 10485 10493 10500 10504 10507 10511 10516 10519 10523 10527 10530 10533 10539 10545 10548 10549 10553 10559 10564 10570 10573 10574 10576 10578 10582 10584 10582 10583 10586 10588 10590 10593 10595 10596 10599 10600 10601 10601 10601 10602 10601 10600 10600 10599 10599
10367 10369 10371 10372 10373 10374 10374 10375 10376 10378 10379 10380 10382 10386 10389 10391 10395 10399 10402 10406 10409 10411 10414 10415 10418 10421 10425 10428 10431 10435 10438 10438 10437 10438 10440 10445 10453 10459 10462 10466 10473 10482 10489 10490 10492 10499 10504 10508 10513 10517 10520 10524 10529 10534 10538 10539 10541 10548 10555 10560 10562 10564 10568 10570 10571 10572 10574 10576 10578 10578 10581 10584 10585 10587 10591 10593 10593 10593 10594 10594 10593 10593 10593 10592 10592
10357 10359 10359 10360 10360 10359 10359 10361 10362 10364 10366 10367 10368 10372 10374 10376 10379 10383 10387 10391 10394 10395 10397 10399 10402 10406 10410 10413 10415 10418 10422 10423 10423 10424 10426 10430 10437 10444 10449 10455 10463 10471 10473 10472 10477 10487 10493 10498 10504 10507 10510 10514 10518 10522 10527 10529 10533 10539 10544 10547 10551 10556 10560 10560 10560 10563 10567 10570 10568 10567 10571 10574 10574 10577 10584 10586 10585 10585 10585 10585 10585 10585 10585 10584 10584